Hourly Data Report for May 30, 2018

TORONTO CITY
ONTARIO
Current Station Operator: ECCC - MSC

43°40'00.000" N
79°24'00.000" W
112.50 m
6158355
71508
XTO

Download Data

Hourly Data (May 2018)
Hourly Data Report for May 30, 2018
TIME
LST
Temp Definition
°C
Dew Point Definition
°C
Rel Hum Definition
%
Precip. Amount Definition
mm

Wind Dir Definition
10's deg

Wind Spd Definition
km/h
Visibility Definition
km
Stn Press Definition
kPa
Hmdx Definition


Wind Chill Definition


Weather Definition


00:00 20.6 8.2 45 0.0 LegendMM LegendMM   100.30     LegendNANA
01:00 19.4 8.4 49 0.0 LegendMM LegendMM   100.30     LegendNANA
02:00 18.7 7.8 49 0.0 LegendMM LegendMM   100.28     LegendNANA
03:00 19.1 8.7 51 0.0 LegendMM LegendMM   100.26     LegendNANA
04:00 19.6 7.7 46 0.0 LegendMM LegendMM   100.22     LegendNANA
05:00 19.5 7.4 45 0.0 LegendMM LegendMM   100.19     LegendNANA
06:00 19.2 8.1 49 0.0 LegendMM LegendMM   100.20     LegendNANA
07:00 18.9 9.2 54 0.0 LegendMM LegendMM   100.21     LegendNANA
08:00 19.9 10.6 55 0.0 LegendMM LegendMM   100.22     LegendNANA
09:00 21.4 10.2 49 0.0 LegendMM LegendMM   100.18     LegendNANA
10:00 22.1 10.9 49 0.0 LegendMM LegendMM   100.13     LegendNANA
11:00 22.3 11.6 51 0.0 LegendMM LegendMM   100.08     LegendNANA
12:00 24.1 12.7 49 0.0 LegendMM LegendMM   100.03 27   LegendNANA
13:00 25.6 13.4 47 0.0 LegendMM LegendMM   99.97 29   LegendNANA
14:00 24.9 13.6 49 0.0 LegendMM LegendMM   99.92 28   LegendNANA
15:00 26.1 14.6 49 0.0 LegendMM LegendMM   99.84 30   LegendNANA
16:00 26.2 15.1 50 0.0 LegendMM LegendMM   99.78 30   LegendNANA
17:00 26.3 16.2 54 0.0 LegendMM LegendMM   99.71 31   LegendNANA
18:00 25.7 15.6 53 0.0 LegendMM LegendMM   99.61 30   LegendNANA
19:00 25.7 14.9 51 0.0 LegendMM LegendMM   99.62 30   LegendNANA
20:00 25.0 14.1 51 0.0 LegendMM LegendMM   99.64 28   LegendNANA
21:00 24.3 14.3 54 0.0 LegendMM LegendMM   99.66 28   LegendNANA
22:00 23.5 14.2 56 0.0 LegendMM LegendMM   99.66 27   LegendNANA
23:00 24.0 15.2 58 0.0 LegendMM LegendMM   99.63 28   LegendNANA

Notes on Data Quality.

Legend

  • E = Estimated
  • M = Missing
  • NA = Not Available*
  • [empty] = Indicates an unobserved value
Date modified: